Time,TemperatureF,DewpointF,PressureIn,WindDirection,WindDirectionDegrees,WindSpeedMPH,WindSpeedGustMPH,Humidity,HourlyPrecipIn,Conditions,Clouds,dailyrainin,SoftwareType,DateUTC
2013-11-20 00:00:00,56.9,54.6,30.01,SSW,202,0.0,0.0,92,0.00,,---,0.00,VWS V14.01,2013-11-20 08:00:00,
2013-11-20 00:30:00,56.6,54.3,30.01,SSW,202,0.0,0.0,92,0.00,,---,0.00,VWS V14.01,2013-11-20 08:30:00,
2013-11-20 01:00:00,55.7,53.4,30.00,SSW,202,0.0,0.0,92,0.00,,---,0.00,VWS V14.01,2013-11-20 09:00:00,
2013-11-20 01:30:00,55.0,53.0,29.99,SSW,202,0.0,0.0,93,0.00,,---,0.00,VWS V14.01,2013-11-20 09:30:00,
2013-11-20 02:00:00,54.8,53.1,29.99,SSW,202,0.0,0.0,94,0.00,,---,0.00,VWS V14.01,2013-11-20 10:00:00,
2013-11-20 02:30:00,54.6,52.9,29.99,SSW,202,0.0,0.0,94,0.00,,---,0.00,VWS V14.01,2013-11-20 10:30:00,
2013-11-20 03:00:00,54.5,53.1,29.99,SSW,202,0.0,0.0,95,0.00,,---,0.00,VWS V14.01,2013-11-20 11:00:00,
2013-11-20 03:30:00,54.9,53.5,29.98,SSW,202,0.0,0.0,95,0.00,,---,0.00,VWS V14.01,2013-11-20 11:30:00,
2013-11-20 04:00:00,55.4,54.3,29.98,SSW,202,0.0,1.0,96,0.00,,---,0.00,VWS V14.01,2013-11-20 12:00:00,
2013-11-20 04:30:00,55.5,54.4,29.97,SSW,202,0.0,1.0,96,0.00,,---,0.00,VWS V14.01,2013-11-20 12:30:00,
2013-11-20 05:00:00,55.8,54.4,29.98,SSW,202,0.0,0.0,95,0.00,,---,0.00,VWS V14.01,2013-11-20 13:00:00,
2013-11-20 05:30:00,55.9,54.5,29.98,SSW,202,0.0,0.0,95,0.00,,---,0.00,VWS V14.01,2013-11-20 13:30:00,
2013-11-20 06:00:00,56.3,54.9,29.99,SSW,202,0.0,1.0,95,0.00,,---,0.00,VWS V14.01,2013-11-20 14:00:00,
2013-11-20 06:30:00,56.4,55.0,29.99,SSW,202,0.0,0.0,95,0.00,,---,0.00,VWS V14.01,2013-11-20 14:30:00,
2013-11-20 07:00:00,56.6,55.2,29.99,SSW,202,0.0,0.0,95,0.00,,---,0.00,VWS V14.01,2013-11-20 15:00:00,
2013-11-20 07:30:00,57.3,55.9,30.00,SSW,202,0.0,1.0,95,0.00,,---,0.00,VWS V14.01,2013-11-20 15:30:00,
2013-11-20 08:00:00,58.6,56.9,30.00,SSW,202,0.0,1.0,94,0.00,,---,0.00,VWS V14.01,2013-11-20 16:00:00,
2013-11-20 08:30:00,61.5,57.6,30.01,SSW,202,0.0,1.0,87,0.00,,---,0.00,VWS V14.01,2013-11-20 16:30:00,
2013-11-20 09:00:00,63.5,57.2,30.00,SSW,202,0.0,3.0,80,0.00,,---,0.00,VWS V14.01,2013-11-20 17:00:00,
2013-11-20 09:30:00,63.4,56.4,30.01,SSW,202,1.0,3.0,78,0.00,,---,0.00,VWS V14.01,2013-11-20 17:30:00,
2013-11-20 10:00:00,64.9,56.4,30.00,East,90,1.0,5.0,74,0.00,,---,0.00,VWS V14.01,2013-11-20 18:00:00,
2013-11-20 10:30:00,64.6,56.1,29.99,South,180,1.0,5.0,74,0.00,,---,0.00,VWS V14.01,2013-11-20 18:30:00,
2013-11-20 11:00:00,64.3,56.6,29.99,South,180,3.0,8.0,76,0.00,,---,0.00,VWS V14.01,2013-11-20 19:00:00,
2013-11-20 11:30:00,64.8,56.7,29.98,South,180,3.0,7.0,75,0.00,,---,0.00,VWS V14.01,2013-11-20 19:30:00,
2013-11-20 12:00:00,65.1,56.2,29.97,South,180,4.0,10.0,73,0.00,,---,0.00,VWS V14.01,2013-11-20 20:00:00,
2013-11-20 12:30:00,63.8,56.5,29.95,South,180,3.0,10.0,77,0.00,,---,0.00,VWS V14.01,2013-11-20 20:30:00,
2013-11-20 13:00:00,63.8,56.5,29.94,South,180,3.0,7.0,77,0.00,,---,0.00,VWS V14.01,2013-11-20 21:00:00,
2013-11-20 13:30:00,64.4,56.3,29.94,South,180,2.0,6.0,75,0.00,,---,0.00,VWS V14.01,2013-11-20 21:30:00,
2013-11-20 14:00:00,63.6,57.0,29.94,South,180,3.0,8.0,79,0.00,,---,0.00,VWS V14.01,2013-11-20 22:00:00,
2013-11-20 14:30:00,63.4,56.8,29.94,SSW,202,2.0,8.0,79,0.00,,---,0.00,VWS V14.01,2013-11-20 22:30:00,
2013-11-20 15:00:00,63.4,56.8,29.93,South,180,2.0,7.0,79,0.00,,---,0.00,VWS V14.01,2013-11-20 23:00:00,
2013-11-20 15:30:00,63.4,57.1,29.93,South,180,2.0,6.0,80,0.00,,---,0.00,VWS V14.01,2013-11-20 23:30:00,
2013-11-20 16:00:00,62.8,58.2,29.94,South,171,3.0,8.0,85,0.00,,---,0.00,VWS V14.01,2013-11-21 00:00:00,
2013-11-20 16:27:00,63.0,58.1,29.93,South,179,3.0,7.0,84,0.00,,---,0.00,VWS V14.01,2013-11-21 00:27:00,
2013-11-20 16:30:00,63.0,58.1,29.93,South,179,3.0,7.0,84,0.00,,---,0.00,VWS V14.01,2013-11-21 00:30:00,
2013-11-20 16:57:00,62.8,58.2,29.94,South,171,3.0,8.0,85,0.00,,---,0.00,VWS V14.01,2013-11-21 00:57:00,
2013-11-20 17:00:00,62.8,58.2,29.94,South,171,3.0,8.0,85,0.00,,---,0.00,VWS V14.01,2013-11-21 01:00:00,
2013-11-20 17:27:00,62.6,58.4,29.93,South,171,2.0,7.0,86,0.00,,---,0.00,VWS V14.01,2013-11-21 01:27:00,
2013-11-20 17:30:00,62.6,58.4,29.93,South,171,2.0,7.0,86,0.00,,---,0.00,VWS V14.01,2013-11-21 01:30:00,
2013-11-20 17:57:00,62.5,58.3,29.93,South,171,0.0,6.0,86,0.00,,---,0.00,VWS V14.01,2013-11-21 01:57:00,
2013-11-20 18:00:00,62.5,58.3,29.93,South,171,0.0,6.0,86,0.00,,---,0.00,VWS V14.01,2013-11-21 02:00:00,
2013-11-20 18:27:00,62.6,58.7,29.93,South,172,0.0,3.0,87,0.00,,---,0.00,VWS V14.01,2013-11-21 02:27:00,
2013-11-20 18:30:00,62.6,58.7,29.93,South,172,0.0,3.0,87,0.00,,---,0.00,VWS V14.01,2013-11-21 02:30:00,
2013-11-20 18:57:00,62.5,58.9,29.93,South,171,0.0,3.0,88,0.00,,---,0.00,VWS V14.01,2013-11-21 02:57:00,
2013-11-20 19:00:00,62.5,58.9,29.93,South,171,0.0,3.0,88,0.00,,---,0.00,VWS V14.01,2013-11-21 03:00:00,
2013-11-20 19:27:00,62.4,59.1,29.93,South,171,0.0,3.0,89,0.00,,---,0.00,VWS V14.01,2013-11-21 03:27:00,
2013-11-20 19:30:00,62.4,59.1,29.93,South,171,0.0,3.0,89,0.00,,---,0.00,VWS V14.01,2013-11-21 03:30:00,
2013-11-20 19:57:00,62.0,59.0,29.93,South,171,0.0,4.0,90,0.00,,---,0.00,VWS V14.01,2013-11-21 03:57:00,
2013-11-20 20:00:00,62.0,59.0,29.93,South,171,0.0,4.0,90,0.00,,---,0.00,VWS V14.01,2013-11-21 04:00:00,
2013-11-20 20:27:00,61.4,59.1,29.93,South,171,1.0,4.0,92,0.00,,---,0.00,VWS V14.01,2013-11-21 04:27:00,
2013-11-20 20:30:00,61.4,59.1,29.93,South,171,1.0,4.0,92,0.00,,---,0.00,VWS V14.01,2013-11-21 04:30:00,
2013-11-20 20:57:00,60.8,58.5,29.94,South,171,0.0,6.0,92,0.02,,---,0.02,VWS V14.01,2013-11-21 04:57:00,
2013-11-20 21:00:00,60.8,58.5,29.94,South,171,0.0,6.0,92,0.02,,---,0.02,VWS V14.01,2013-11-21 05:00:00,
2013-11-20 21:27:00,60.5,58.8,29.93,South,171,1.0,3.0,94,0.04,,---,0.04,VWS V14.01,2013-11-21 05:27:00,
2013-11-20 21:30:00,60.5,58.8,29.93,South,171,1.0,3.0,94,0.04,,---,0.04,VWS V14.01,2013-11-21 05:30:00,
2013-11-20 22:00:00,59.8,58.4,29.93,ESE,112,1.0,7.0,95,0.02,,---,0.02,VWS V14.01,2013-11-21 06:00:00,
2013-11-20 22:30:00,59.6,58.8,29.93,ESE,112,1.0,5.0,97,0.02,,---,0.04,VWS V14.01,2013-11-21 06:30:00,
2013-11-20 23:00:00,59.6,58.8,29.92,ESE,112,0.0,4.0,97,0.02,,---,0.06,VWS V14.01,2013-11-21 07:00:00,
2013-11-20 23:30:00,59.5,58.9,29.92,ESE,112,1.0,6.0,98,0.05,,---,0.07,VWS V14.01,2013-11-21 07:30:00,